Home > Weather > Freehold > Past weeks

Flag for USA Past Weather in Freehold, New Jersey, USA — Yesterday and Last 2 Weeks

Now
73 °F

Clear.


Feels Like: 76 °F
Forecast: 67 / 79 °F
Wind: 6 mph from Southwest

Location: Belmar-Farmdale

Current Time: Jun 30, 2016 at 10:45:36 PM

Latest Report: Jun 30, 2016 at 10:15 PM


Visibility: 10 mi

Pressure: 30.42 "Hg

Humidity: 69%

Dew Point: 63 °F

Location of FreeholdLocation

Past Weather in Freehold — Graph

°F

Freehold Temperature Yesterday

Maximum temperature yesterday: 85 °F (at 4:56 PM)
Minimum temperature yesterday: 68 °F (at 4:56 AM)
Average temperature yesterday: 76 °F

High & Low Weather Summary for the Past Weeks

 TemperatureHumidityPressure
High88 °F (Jun 22, 1:35 PM)100% (Jun 22, 2:15 AM)30.42 "Hg (Jun 22, 2:15 AM)
Low52 °F (Jun 18, 4:15 AM)25% (Jun 22, 2:35 PM)29.75 "Hg (Jun 16, 6:56 PM)
Average72 °F71%30.28 "Hg
* Reported Jun 15 9:15 PM — Jun 30 9:56 PM, Freehold, Weather by CustomWeather, © 2016

Note: Actual official high and low records may vary slightly from our data, if they occured in-between our weather recording intervals... More about our weather records

Advertising

Freehold Weather History for the Previous 24 Hours

Scroll right to see more
 ConditionsComfort  
Time TempWeatherWind HumidityBarometerVisibility
9:56 PM
Thu, Jun 30
73 °FClear.5 mph71%30.05 "Hg10 mi
9:35 PM73 °FClear.3 mph74%30.04 "Hg10 mi
9:15 PM73 °FSunny.5 mph78%30.04 "Hg10 mi
8:56 PM74 °FSunny.5 mph76%30.03 "Hg10 mi
8:35 PM75 °FSunny.7 mph69%30.03 "Hg10 mi
8:15 PM75 °FSunny.6 mph69%30.03 "Hg10 mi
7:56 PM77 °FPassing clouds.7 mph69%30.02 "Hg10 mi
7:35 PM79 °FOvercast.8 mph65%30.03 "Hg10 mi
7:15 PM79 °FBroken clouds.7 mph61%30.03 "Hg10 mi
6:56 PM79 °FBroken clouds.6 mph65%30.03 "Hg10 mi
6:35 PM81 °FMore clouds than sun.12 mph58%30.02 "Hg10 mi
6:15 PM81 °FPartly sunny.8 mph58%30.02 "Hg10 mi
5:56 PM78 °FOvercast.7 mph62%30.03 "Hg10 mi
5:35 PM79 °FScattered clouds.8 mph61%30.02 "Hg10 mi
5:15 PM79 °FSunny.10 mph58%30.02 "Hg10 mi
4:56 PM79 °FSunny.13 mph54%30.02 "Hg10 mi
4:35 PM81 °FPassing clouds.9 mph54%30.02 "Hg10 mi
4:15 PM79 °FPartly sunny.12 mph54%30.02 "Hg10 mi
3:56 PM80 °FPartly sunny.12 mph52%30.02 "Hg10 mi
3:35 PM81 °FBroken clouds.13 mph51%30.02 "Hg10 mi
3:15 PM81 °FScattered clouds.10 mph54%30.02 "Hg10 mi
2:56 PM81 °FPassing clouds.13 mph53%30.02 "Hg10 mi
2:35 PM82 °FPartly sunny.10 mph48%30.02 "Hg10 mi
2:15 PM81 °FPassing clouds.6 mph51%30.03 "Hg10 mi
1:56 PM81 °FPassing clouds.6 mph49%30.03 "Hg10 mi
1:35 PM82 °FScattered clouds.5 mph45%30.04 "Hg10 mi
1:15 PM82 °FScattered clouds.8 mph40%30.04 "Hg10 mi
12:56 PM81 °FPartly sunny.7 mph44%30.04 "Hg10 mi
12:35 PM79 °FPartly sunny.5 mph54%30.05 "Hg10 mi
11:56 AM80 °FSunny.7 mph45%30.04 "Hg10 mi
11:35 AM81 °FSunny.6 mph45%30.05 "Hg10 mi
11:15 AM81 °FSunny.No wind45%30.05 "Hg10 mi
10:56 AM78 °FSunny.5 mph48%30.04 "Hg10 mi
10:35 AM77 °FSunny.No wind51%30.04 "Hg10 mi
10:15 AM77 °FWarm.5 mph54%30.04 "Hg10 mi
9:56 AM77 °FSunny.5 mph54%30.05 "Hg10 mi
9:35 AM75 °FSunny.5 mph57%30.42 "Hg10 mi
9:15 AM75 °FSunny.7 mph57%30.42 "Hg10 mi
8:56 AM74 °FSunny.6 mph60%30.04 "Hg10 mi
8:35 AM73 °FSunny.8 mph61%30.42 "Hg10 mi
8:15 AM72 °FSunny.8 mph65%30.42 "Hg10 mi
7:56 AM70 °FSunny.8 mph71%30.03 "Hg10 mi
7:35 AM70 °FSunny.7 mph73%30.42 "Hg10 mi
7:15 AM66 °FSunny.6 mph78%30.42 "Hg10 mi
6:56 AM66 °FSunny.3 mph78%30.03 "Hg10 mi
6:35 AM64 °FSunny.5 mph78%30.42 "Hg10 mi
6:15 AM63 °FClear.6 mph83%30.42 "Hg10 mi
5:56 AM62 °FClear.6 mph86%30.03 "Hg10 mi
5:35 AM63 °FClear.6 mph83%30.42 "Hg10 mi
5:15 AM63 °FClear.N/A83%30.42 "Hg10 mi
4:56 AM63 °FClear.3 mph84%30.01 "Hg10 mi
4:35 AM63 °FClear.6 mph83%30.42 "Hg10 mi
4:15 AM63 °FClear.6 mph83%30.42 "Hg10 mi
3:56 AM62 °FClear.6 mph86%29.99 "Hg10 mi
3:35 AM63 °FClear.5 mph83%30.42 "Hg10 mi
3:15 AM63 °FClear.6 mph83%30.42 "Hg10 mi
2:56 AM63 °FClear.5 mph84%29.99 "Hg10 mi
2:35 AM64 °FClear.6 mph78%30.42 "Hg10 mi
2:15 AM64 °FClear.5 mph78%30.42 "Hg10 mi
1:56 AM65 °FClear.6 mph78%29.98 "Hg10 mi
1:35 AM66 °FClear.5 mph73%30.42 "Hg10 mi
12:56 AM68 °FClear.5 mph70%29.98 "Hg10 mi
12:35 AM68 °FClear.5 mph73%30.42 "Hg10 mi
12:15 AM68 °FClear.3 mph69%30.42 "Hg10 mi
11:56 PM
Wed, Jun 29
69 °FClear.5 mph68%29.97 "Hg10 mi
11:35 PM70 °FPassing clouds.5 mph64%30.42 "Hg10 mi
11:15 PM72 °FPassing clouds.8 mph65%30.42 "Hg10 mi
10:56 PM71 °FPassing clouds.6 mph68%29.96 "Hg10 mi
10:35 PM72 °FPassing clouds.6 mph73%30.42 "Hg10 mi
10:15 PM73 °FOvercast.5 mph74%30.42 "Hg10 mi
Weather by CustomWeather, © 2016

See weather overviewHow to use our weather pages